COSMOS 2520

Last updated on Sun Jun 21 2026 00:03:07 GMT+0000 (Coordinated Universal Time)

1 42907U 17046A 26171.25829686 .00000132 00000+0 00000+0 0 9997 2 42907 0.0458 95.4065 0000868 28.4578 282.5989 1.00272047 32423
UTC large
Height (km)
Speed (km/s)
/
Latitude / Longitude
Inclination (degrees)
Orbital Period (minutes)
Azimuth
Elevation
Range (km)
Doppler Factor

Next 0 passes for location: London (51.5072 / 0.1276)

No passes found over London.
COSMOS 2520